Weather History for KSIF - March, 2014

Change the Weather History Date:

Sunday, March 9, 2014

  Actual Average (KGSO) Record (KGSO)
Temperature  
Mean Temperature 48 °F 48 °F  
Max Temperature 64 °F 59 °F 81 °F (1974)
Min Temperature 32 °F 37 °F 12 °F (1996)
Degree Days  
Heating Degree Days 17 17  
Month to date heating degree days 164  
Since 1 July heating degree days 3019  
Cooling Degree Days 0 0  
Month to date cooling degree days 0  
Year to date cooling degree days 0  
Moisture  
Dew Point 33 °F    
Average Humidity 68    
Maximum Humidity 98    
Minimum Humidity 26    
Precipitation  
Precipitation 0.00 in 0.12 in 1.66 in (1960)
Month to date precipitation 1.07  
Year to date precipitation 7.09  
Snow  
Snow 0.00 in 0.00 in 11.10 in (1960)
Month to date snowfall 0.4  
Since 1 July snowfall 7.1  
Snow Depth -    
Sea Level Pressure  
Sea Level Pressure 30.03 in    
Wind  
Wind Speed 1 mph (WNW)    
Max Wind Speed 7 mph    
Max Gust Speed -    
Visibility 10 miles    
Events      
T = Trace of Precipitation, MM = Missing Value Source: NWS Daily Summary

Daily Weather History Graph

Daily Weather History Graph

Search for Another Location

Airport or City:

Trip Planner

Search our weather history database for the weather conditions in past years. The results will help you decide how hot, cold, wet, or windy it might be!

Date:

Astronomy

Mar. 09, 2014 Rise Set
Actual Time 7:38 AM EDT 7:21 PM EDT
Civil Twilight 7:13 AM EDT 7:47 PM EDT
Nautical Twilight 6:43 AM EDT 8:17 PM EDT
Astronomical Twilight 6:13 AM EDT 8:47 PM EDT
Moon 1:19 PM EDT (3/9) 3:56 AM EDT (3/9)
Length of Visible Light 12h 34m
Length of Day
11h 42m
First Quarter, 61% of the Moon is Illuminated
Mar 9
First Quarter
Mar 16
Full
Mar 23
Last Quarter
Mar 30
New
Apr 7
First Quarter

Hourly Weather History & Observations

Time (EDT) Temp. Windchill Dew Point Humidity Pressure Visibility Wind Dir Wind Speed Gust Speed Precip Events Conditions
12:15 AM 34.7 °F - 33.1 °F 94% 29.99 in 10.0 mi Calm Calm - N/A   Clear
12:35 AM 35.6 °F - 34.3 °F 95% 29.99 in 10.0 mi Calm Calm - N/A   Clear
12:55 AM 34.3 °F - 33.3 °F 96% 29.99 in 10.0 mi Calm Calm - N/A   Clear
1:15 AM 34.3 °F - 33.3 °F 96% 29.99 in 10.0 mi Calm Calm - N/A   Clear
1:35 AM 32.7 °F - 32.0 °F 97% 30.00 in 10.0 mi Calm Calm - N/A   Clear
1:55 AM 32.9 °F - 32.0 °F 96% 29.99 in 10.0 mi Calm Calm - N/A   Clear
3:15 AM 32.7 °F - 31.8 °F 96% 29.99 in 10.0 mi Calm Calm - N/A   Clear
3:35 AM 32.9 °F - 32.0 °F 96% 29.99 in 10.0 mi Calm Calm - N/A   Clear
3:55 AM 32.5 °F - 32.0 °F 98% 29.99 in 10.0 mi Calm Calm - N/A   Clear
4:15 AM 33.1 °F - 32.2 °F 96% 29.99 in 10.0 mi Calm Calm - N/A   Clear
4:35 AM 33.4 °F - 32.5 °F 96% 29.98 in 10.0 mi Calm Calm - N/A   Clear
4:55 AM 33.4 °F - 32.5 °F 96% 29.98 in 10.0 mi Calm Calm - N/A   Clear
5:15 AM 33.6 °F - 32.5 °F 96% 29.99 in 10.0 mi Calm Calm - N/A   Clear
5:35 AM 33.6 °F - 32.5 °F 96% 29.99 in 10.0 mi Calm Calm - N/A   Clear
5:55 AM 33.4 °F - 32.4 °F 96% 30.00 in 10.0 mi Calm Calm - N/A   Clear
6:15 AM 37.4 °F - 34.7 °F 90% 30.01 in 10.0 mi Calm Calm - N/A   Clear
6:35 AM 36.1 °F 33.5 °F 33.3 °F 89% 30.01 in 10.0 mi SW 3.5 mph - N/A   Clear
6:55 AM 34.5 °F - 32.2 °F 91% 30.02 in 10.0 mi Calm Calm - N/A   Clear
7:15 AM 34.0 °F 31.0 °F 32.5 °F 94% 30.03 in 10.0 mi WNW 3.5 mph - N/A   Clear
7:35 AM 36.7 °F - 33.1 °F 87% 30.03 in 10.0 mi Calm Calm - N/A   Clear
7:55 AM 33.3 °F - 32.0 °F 95% 30.05 in 10.0 mi Calm Calm - N/A   Mostly Cloudy
8:15 AM 34.0 °F 31.0 °F 32.7 °F 95% 30.06 in 10.0 mi NNW 3.5 mph - N/A   Scattered Clouds
8:35 AM 37.4 °F 33.8 °F 35.1 °F 91% 30.06 in 10.0 mi NW 4.6 mph - N/A   Clear
8:55 AM 38.7 °F 35.2 °F 33.8 °F 83% 30.07 in 10.0 mi SE 4.6 mph - N/A   Clear
9:15 AM 38.3 °F - 35.2 °F 89% 30.08 in 10.0 mi Calm Calm - N/A   Clear
9:35 AM 42.8 °F - 36.5 °F 78% 30.08 in 10.0 mi Calm Calm - N/A   Clear
9:55 AM 49.8 °F - 39.0 °F 66% 30.09 in 10.0 mi Calm Calm - N/A   Clear
10:15 AM 49.5 °F - 38.5 °F 66% 30.09 in 10.0 mi SE 3.5 mph - N/A   Clear
10:35 AM 48.2 °F - 37.8 °F 67% 30.09 in 10.0 mi Calm Calm - N/A   Clear
10:55 AM 50.0 °F - 37.8 °F 63% 30.10 in 10.0 mi Calm Calm - N/A   Clear
11:15 AM 51.4 °F - 38.8 °F 62% 30.09 in 10.0 mi Calm Calm - N/A   Clear
11:35 AM 54.0 °F - 37.9 °F 55% 30.09 in 10.0 mi NNE 5.8 mph - N/A   Clear
11:55 AM 55.4 °F - 37.9 °F 52% 30.09 in 10.0 mi Calm Calm - N/A   Clear
12:15 PM 56.5 °F - 37.8 °F 50% 30.09 in 10.0 mi WNW 4.6 mph - N/A   Clear
12:35 PM 57.2 °F - 36.7 °F 46% 30.08 in 10.0 mi West 3.5 mph - N/A   Clear
12:55 PM 57.6 °F - 37.2 °F 47% 30.09 in 10.0 mi Calm Calm - N/A   Clear
1:15 PM 58.5 °F - 37.6 °F 46% 30.09 in 10.0 mi West 6.9 mph - N/A   Clear
1:35 PM 59.0 °F - 37.0 °F 44% 30.08 in 10.0 mi WNW 3.5 mph - N/A   Clear
1:55 PM 60.1 °F - 36.1 °F 41% 30.07 in 10.0 mi NW 4.6 mph - N/A   Clear
2:15 PM 60.4 °F - 36.0 °F 40% 30.06 in 10.0 mi NW 5.8 mph - N/A   Clear
2:35 PM 60.8 °F - 35.8 °F 39% 30.06 in 10.0 mi Calm Calm - N/A   Clear
2:55 PM 61.7 °F - 36.1 °F 39% 30.05 in 10.0 mi WSW 4.6 mph - N/A   Clear
3:15 PM 62.8 °F - 35.1 °F 36% 30.04 in 10.0 mi Calm Calm - N/A   Scattered Clouds
3:35 PM 63.1 °F - 34.0 °F 34% 30.03 in 10.0 mi NNW 4.6 mph - N/A   Clear
3:55 PM 63.1 °F - 33.3 °F 33% 30.03 in 10.0 mi Calm Calm - N/A   Clear
4:15 PM 63.5 °F - 33.6 °F 33% 30.03 in 10.0 mi West 3.5 mph - N/A   Clear
4:35 PM 63.7 °F - 32.2 °F 31% 30.02 in 10.0 mi Calm Calm - N/A   Clear
4:55 PM 64.0 °F - 32.5 °F 31% 30.02 in 10.0 mi Calm Calm - N/A   Clear
5:15 PM 64.0 °F - 32.7 °F 31% 30.02 in 10.0 mi Calm Calm - N/A   Clear
5:35 PM 64.6 °F - 32.2 °F 30% 30.01 in 10.0 mi West 4.6 mph - N/A   Clear
5:55 PM 64.4 °F - 31.6 °F 29% 30.01 in 10.0 mi WNW 3.5 mph - N/A   Clear
6:15 PM 63.9 °F - 29.5 °F 27% 30.01 in 10.0 mi WNW 4.6 mph - N/A   Clear
6:35 PM 63.0 °F - 27.5 °F 26% 30.00 in 10.0 mi Calm Calm - N/A   Clear
6:55 PM 61.5 °F - 26.6 °F 27% 30.00 in 10.0 mi Calm Calm - N/A   Clear
7:15 PM 57.0 °F - 27.3 °F 32% 30.01 in 10.0 mi Calm Calm - N/A   Clear
7:35 PM 49.1 °F - 31.8 °F 51% 30.01 in 10.0 mi Calm Calm - N/A   Clear
7:55 PM 45.0 °F - 31.8 °F 60% 30.02 in 10.0 mi Calm Calm - N/A   Clear
8:15 PM 42.6 °F - 32.0 °F 66% 30.02 in 10.0 mi Calm Calm - N/A   Clear
8:35 PM 42.1 °F - 32.0 °F 67% 30.03 in 10.0 mi Calm Calm - N/A   Clear
8:55 PM 42.1 °F - 31.1 °F 65% 30.03 in 10.0 mi Calm Calm - N/A   Clear
9:15 PM 40.8 °F - 30.6 °F 67% 30.03 in 10.0 mi Calm Calm - N/A   Clear
9:35 PM 39.6 °F - 30.9 °F 71% 30.04 in 10.0 mi Calm Calm - N/A   Clear
9:55 PM 39.4 °F - 31.8 °F 74% 30.04 in 10.0 mi Calm Calm - N/A   Clear
10:15 PM 37.8 °F - 32.7 °F 82% 30.04 in 10.0 mi Calm Calm - N/A   Clear
10:35 PM 36.5 °F - 32.0 °F 84% 30.04 in 10.0 mi Calm Calm - N/A   Clear
10:55 PM 36.1 °F - 31.3 °F 83% 30.05 in 10.0 mi Calm Calm - N/A   Clear
11:15 PM 37.0 °F - 32.0 °F 82% 30.04 in 10.0 mi Calm Calm - N/A   Clear
11:35 PM 36.9 °F - 31.6 °F 81% 30.04 in 10.0 mi Calm Calm - N/A   Clear
11:55 PM 36.3 °F - 31.6 °F 83% 30.03 in 10.0 mi Calm Calm - N/A   Clear
12:15 AM 35.6 °F - 31.8 °F 86% 30.03 in 10.0 mi Calm Calm - N/A   Clear
12:35 AM 33.1 °F - 30.7 °F 91% 30.03 in 10.0 mi Calm Calm - N/A   Clear
12:55 AM 32.4 °F - 30.0 °F 91% 30.03 in 10.0 mi Calm Calm - N/A   Clear